Location: Dodgeville, WI 53533, USA
(43.0344°N, 90.0900°W)
Time: 05:08:35
(UTC-05:00)

ISS - Visible Passes

Search period start: 02 July 2020 00:00
Search period end: 12 July 2020 00:00
Orbit: 417 x 420 km, 51.6° (Epoch: 02 July)

Date Brightness Start Highest point End Pass type
(mag) Time Alt. Az. Time Alt. Az. Time Alt. Az.
02 Jul -1.7 02:34:18 19° ESE 02:34:18 19° ESE 02:35:55 10° E visible
02 Jul -3.2 04:07:13 15° WSW 04:09:49 52° NNW 04:13:07 10° NE visible
03 Jul -3.8 03:20:59 44° WSW 03:21:55 81° NNW 03:25:17 10° NE visible
04 Jul -3.1 02:34:41 48° E 02:34:41 48° E 02:37:22 10° ENE visible
04 Jul -2.0 04:08:04 10° W 04:11:01 28° NNW 04:13:59 10° NE visible
05 Jul -1.4 01:48:20 17° E 01:48:20 17° E 01:49:20 10° ENE visible
05 Jul -2.5 03:21:15 21° WNW 03:22:59 36° NNW 03:26:09 10° NE visible
06 Jul -3.2 02:34:51 52° NW 02:35:00 53° NNW 02:38:18 10° NE visible
06 Jul -1.3 04:09:44 10° WNW 04:12:19 20° N 04:14:55 10° NE visible
07 Jul -2.2 01:48:25 33° NE 01:48:25 33° NE 01:50:25 10° NE visible
07 Jul -1.5 03:21:27 10° WNW 03:24:12 23° NNW 03:26:58 10° NE visible
08 Jul -1.1 01:01:54 14° ENE 01:01:54 14° ENE 01:02:28 10° ENE visible
08 Jul -1.9 02:34:48 21° WNW 02:36:06 28° NNW 02:39:05 10° NE visible
08 Jul -1.0 04:11:12 10° NW 04:13:39 18° N 04:16:06 10° NE visible
09 Jul -2.3 01:48:13 37° NNW 01:48:13 37° NNW 01:51:12 10° NE visible
09 Jul -1.0 03:23:01 10° NW 03:25:29 19° N 03:27:57 10° NE visible
10 Jul -1.8 01:01:33 27° NE 01:01:33 27° NE 01:03:19 10° NE visible
10 Jul -1.2 02:34:43 10° WNW 02:37:19 20° N 02:39:55 10° NE visible
10 Jul -1.1 04:12:15 10° NW 04:14:56 21° NNE 04:17:35 10° ENE visible
11 Jul -1.2 00:14:44 15° NE 00:14:44 15° NE 00:15:23 10° NE visible
11 Jul -1.4 01:47:38 17° NW 01:49:09 23° NNW 01:51:56 10° NE visible
11 Jul -0.9 03:24:14 10° NW 03:26:45 19° N 03:29:16 10° NE visible
